DateTime, Accumulation (mm), Intensity (mm/hr), 30s_intervals_count 
2019-09-01 00:00,0.013,0.050,30
2019-09-01 00:15,0.000,0.000,30
2019-09-01 00:30,0.000,0.001,30
2019-09-01 00:45,0.000,0.000,30
2019-09-01 01:00,0.002,0.009,30
2019-09-01 01:15,0.006,0.024,30
2019-09-01 01:30,0.010,0.041,30
2019-09-01 01:45,0.011,0.043,30
2019-09-01 02:00,0.063,0.254,30
2019-09-01 02:15,0.089,0.357,30
2019-09-01 02:30,0.016,0.063,30
2019-09-01 02:45,0.003,0.011,30
2019-09-01 03:00,0.018,0.072,30
2019-09-01 03:15,0.064,0.255,30
2019-09-01 03:30,0.045,0.181,30
2019-09-01 03:45,0.006,0.022,30
2019-09-01 04:00,0.101,0.406,30
2019-09-01 04:15,0.224,0.894,30
2019-09-01 04:30,0.120,0.480,30
2019-09-01 04:45,0.044,0.176,30
2019-09-01 05:00,0.067,0.269,30
2019-09-01 05:15,0.036,0.144,30
2019-09-01 05:30,0.021,0.083,30
2019-09-01 05:45,0.004,0.015,30
2019-09-01 06:00,0.011,0.045,30
2019-09-01 06:15,0.005,0.021,30
2019-09-01 06:30,0.009,0.037,30
2019-09-01 06:45,0.013,0.052,30
2019-09-01 07:00,0.017,0.069,30
2019-09-01 07:15,0.011,0.044,30
2019-09-01 07:30,0.036,0.144,30
2019-09-01 07:45,0.004,0.017,30
2019-09-01 08:00,0.008,0.032,30
2019-09-01 08:15,0.018,0.071,30
2019-09-01 08:30,0.027,0.107,30
2019-09-01 08:45,0.014,0.055,30
2019-09-01 09:00,0.003,0.013,30
2019-09-01 09:15,0.008,0.032,30
2019-09-01 09:30,0.019,0.077,30
2019-09-01 09:45,0.011,0.045,30
2019-09-01 10:00,0.003,0.011,30
2019-09-01 10:15,0.008,0.030,30
2019-09-01 10:30,0.041,0.162,30
2019-09-01 10:45,0.003,0.014,30
2019-09-01 11:00,0.010,0.040,30
2019-09-01 11:15,0.035,0.140,30
2019-09-01 11:30,0.046,0.184,30
2019-09-01 11:45,0.078,0.314,30
2019-09-01 12:00,0.096,0.385,30
2019-09-01 12:15,0.026,0.103,30
2019-09-01 12:30,0.044,0.177,30
2019-09-01 12:45,0.091,0.365,30
2019-09-01 13:00,0.024,0.094,30
2019-09-01 13:15,0.025,0.100,30
2019-09-01 13:30,0.005,0.019,30
2019-09-01 13:45,0.000,0.001,30
2019-09-01 14:00,0.000,0.000,30
2019-09-01 14:15,0.000,0.000,30
2019-09-01 14:30,0.000,0.000,30
2019-09-01 14:45,0.000,0.000,30
2019-09-01 15:00,0.000,0.000,30
2019-09-01 15:15,0.000,0.000,30
2019-09-01 15:30,0.000,0.000,30
2019-09-01 15:45,0.000,0.000,30
2019-09-01 16:00,0.000,0.000,30
2019-09-01 16:15,0.000,0.000,30
2019-09-01 16:30,0.000,0.000,30
2019-09-01 16:45,0.000,0.000,30
2019-09-01 17:00,0.000,0.000,30
2019-09-01 17:15,0.000,0.000,30
2019-09-01 17:30,0.000,0.000,30
2019-09-01 17:45,0.000,0.000,30
2019-09-01 18:00,0.000,0.001,30
2019-09-01 18:15,0.004,0.016,30
2019-09-01 18:30,0.013,0.052,30
2019-09-01 18:45,0.017,0.070,30
2019-09-01 19:00,0.002,0.009,30
2019-09-01 19:15,0.000,0.000,30
2019-09-01 19:30,0.056,0.226,30
2019-09-01 19:45,0.247,0.990,30
2019-09-01 20:00,0.212,0.847,30
2019-09-01 20:15,0.176,0.703,30
2019-09-01 20:30,0.225,0.901,30
2019-09-01 20:45,0.122,0.487,30
2019-09-01 21:00,0.031,0.125,30
2019-09-01 21:15,0.007,0.029,30
2019-09-01 21:30,0.007,0.028,30
2019-09-01 21:45,0.011,0.042,30
2019-09-01 22:00,0.045,0.180,30
2019-09-01 22:15,0.113,0.453,30
2019-09-01 22:30,0.063,0.252,30
2019-09-01 22:45,0.038,0.153,30
2019-09-01 23:00,0.026,0.102,30
2019-09-01 23:15,0.146,0.585,30
2019-09-01 23:30,0.108,0.432,30
2019-09-01 23:45,0.013,0.054,30
2019-09-02 00:00,,,21
2019-09-02 00:15,0.000,0.000,30
2019-09-02 00:30,0.000,0.000,30
2019-09-02 00:45,0.000,0.000,30
2019-09-02 01:00,0.001,0.004,30
2019-09-02 01:15,0.003,0.013,30
2019-09-02 01:30,0.002,0.008,30
2019-09-02 01:45,0.010,0.041,30
2019-09-02 02:00,0.023,0.090,30
2019-09-02 02:15,0.011,0.044,30
2019-09-02 02:30,0.003,0.010,30
2019-09-02 02:45,0.000,0.001,30
2019-09-02 03:00,0.000,0.000,30
2019-09-02 03:15,0.002,0.007,30
2019-09-02 03:30,0.008,0.032,30
2019-09-02 03:45,0.003,0.010,30
2019-09-02 04:00,0.010,0.039,30
2019-09-02 04:15,0.007,0.026,30
2019-09-02 04:30,0.000,0.000,30
2019-09-02 04:45,0.000,0.001,30
2019-09-02 05:00,0.000,0.000,30
2019-09-02 05:15,0.000,0.000,30
2019-09-02 05:30,0.000,0.000,30
2019-09-02 05:45,0.000,0.001,30
2019-09-02 06:00,0.000,0.000,30
2019-09-02 06:15,0.000,0.000,30
2019-09-02 06:30,0.000,0.000,30
2019-09-02 06:45,0.000,0.001,30
2019-09-02 07:00,0.000,0.000,30
2019-09-02 07:15,0.000,0.000,30
2019-09-02 07:30,0.000,0.000,30
2019-09-02 07:45,0.013,0.051,30
2019-09-02 08:00,0.018,0.071,30
2019-09-02 08:15,0.006,0.025,30
2019-09-02 08:30,0.022,0.087,30
2019-09-02 08:45,0.108,0.432,30
2019-09-02 09:00,0.070,0.278,30
2019-09-02 09:15,0.218,0.874,30
2019-09-02 09:30,0.240,0.962,30
2019-09-02 09:45,0.185,0.738,30
2019-09-02 10:00,0.344,1.374,30
2019-09-02 10:15,0.292,1.168,30
2019-09-02 10:30,0.254,1.018,30
2019-09-02 10:45,0.146,0.585,30
2019-09-02 11:00,0.094,0.374,30
2019-09-02 11:15,0.100,0.402,30
2019-09-02 11:30,0.059,0.235,30
2019-09-02 11:45,0.016,0.065,30
2019-09-02 12:00,0.006,0.023,30
2019-09-02 12:15,0.021,0.085,30
2019-09-02 12:30,0.073,0.290,30
2019-09-02 12:45,0.104,0.415,30
2019-09-02 13:00,0.082,0.326,30
2019-09-02 13:15,0.111,0.444,30
2019-09-02 13:30,0.180,0.721,30
2019-09-02 13:45,0.257,1.026,30
2019-09-02 14:00,0.215,0.860,30
2019-09-02 14:15,0.279,1.118,30
2019-09-02 14:30,0.451,1.804,30
2019-09-02 14:45,0.364,1.455,30
2019-09-02 15:00,0.432,1.728,30
2019-09-02 15:15,0.334,1.334,30
2019-09-02 15:30,0.217,0.869,30
2019-09-02 15:45,0.088,0.351,30
2019-09-02 16:00,0.063,0.250,30
2019-09-02 16:15,0.119,0.477,30
2019-09-02 16:30,0.117,0.468,30
2019-09-02 16:45,0.116,0.462,30
2019-09-02 17:00,0.074,0.295,30
2019-09-02 17:15,0.157,0.626,30
2019-09-02 17:30,0.166,0.663,30
2019-09-02 17:45,0.134,0.536,30
2019-09-02 18:00,0.142,0.567,30
2019-09-02 18:15,0.150,0.601,30
2019-09-02 18:30,0.091,0.363,30
2019-09-02 18:45,0.074,0.297,30
2019-09-02 19:00,0.027,0.108,30
2019-09-02 19:15,0.008,0.034,30
2019-09-02 19:30,0.005,0.020,30
2019-09-02 19:45,0.001,0.004,30
2019-09-02 20:00,0.000,0.000,30
2019-09-02 20:15,0.000,0.000,30
2019-09-02 20:30,0.001,0.005,30
2019-09-02 20:45,0.003,0.013,30
2019-09-02 21:00,0.002,0.010,30
2019-09-02 21:15,0.002,0.008,30
2019-09-02 21:30,0.002,0.007,30
2019-09-02 21:45,0.003,0.011,30
2019-09-02 22:00,0.009,0.035,30
2019-09-02 22:15,0.012,0.049,30
2019-09-02 22:30,0.023,0.093,30
2019-09-02 22:45,0.030,0.119,30
2019-09-02 23:00,0.032,0.129,30
2019-09-02 23:15,0.014,0.055,30
2019-09-02 23:30,0.005,0.020,30
2019-09-02 23:45,0.003,0.012,30
2019-09-03 00:00,0.002,0.007,30
2019-09-03 00:15,0.001,0.003,30
2019-09-03 00:30,0.002,0.006,30
2019-09-03 00:45,0.004,0.016,30
2019-09-03 01:00,0.003,0.013,30
2019-09-03 01:15,0.003,0.014,30
2019-09-03 01:30,0.006,0.025,30
2019-09-03 01:45,0.003,0.013,30
2019-09-03 02:00,0.002,0.008,30
2019-09-03 02:15,0.004,0.015,30
2019-09-03 02:30,0.002,0.009,30
2019-09-03 02:45,0.003,0.012,30
2019-09-03 03:00,0.007,0.027,30
2019-09-03 03:15,0.040,0.159,30
2019-09-03 03:30,0.038,0.153,30
2019-09-03 03:45,0.032,0.127,30
2019-09-03 04:00,0.015,0.059,30
2019-09-03 04:15,0.006,0.023,30
2019-09-03 04:30,0.002,0.009,30
2019-09-03 04:45,0.001,0.003,30
2019-09-03 05:00,0.000,0.001,30
2019-09-03 05:15,0.000,0.000,30
2019-09-03 05:30,0.001,0.002,30
2019-09-03 05:45,0.004,0.018,30
2019-09-03 06:00,0.030,0.122,30
2019-09-03 06:15,0.085,0.342,30
2019-09-03 06:30,0.105,0.418,30
2019-09-03 06:45,0.087,0.347,30
2019-09-03 07:00,0.068,0.273,30
2019-09-03 07:15,0.033,0.134,30
2019-09-03 07:30,0.052,0.208,30
2019-09-03 07:45,0.086,0.342,30
2019-09-03 08:00,0.094,0.375,30
2019-09-03 08:15,0.095,0.379,30
2019-09-03 08:30,0.067,0.270,30
2019-09-03 08:45,0.026,0.104,30
2019-09-03 09:00,0.019,0.076,30
2019-09-03 09:15,0.061,0.243,30
2019-09-03 09:30,0.096,0.383,30
2019-09-03 09:45,0.066,0.265,30
2019-09-03 10:00,0.055,0.222,30
2019-09-03 10:15,0.031,0.125,30
2019-09-03 10:30,0.007,0.029,30
2019-09-03 10:45,0.002,0.007,30
2019-09-03 11:00,0.003,0.014,30
2019-09-03 11:15,0.002,0.008,30
2019-09-03 11:30,0.001,0.004,30
2019-09-03 11:45,0.003,0.011,30
2019-09-03 12:00,0.017,0.067,30
2019-09-03 12:15,0.046,0.185,30
2019-09-03 12:30,0.035,0.139,30
2019-09-03 12:45,0.038,0.152,30
2019-09-03 13:00,0.029,0.115,30
2019-09-03 13:15,0.005,0.022,30
2019-09-03 13:30,0.004,0.017,30
2019-09-03 13:45,0.003,0.014,30
2019-09-03 14:00,0.001,0.002,30
2019-09-03 14:15,0.000,0.000,30
2019-09-03 14:30,0.000,0.000,30
2019-09-03 14:45,0.000,0.001,30
2019-09-03 15:00,0.000,0.001,30
2019-09-03 15:15,0.000,0.000,30
2019-09-03 15:30,0.000,0.000,30
2019-09-03 15:45,0.000,0.000,30
2019-09-03 16:00,0.001,0.002,30
2019-09-03 16:15,0.014,0.058,30
2019-09-03 16:30,0.023,0.092,30
2019-09-03 16:45,0.002,0.008,30
2019-09-03 17:00,0.004,0.015,30
2019-09-03 17:15,0.014,0.055,30
2019-09-03 17:30,0.028,0.113,30
2019-09-03 17:45,0.033,0.130,30
2019-09-03 18:00,0.063,0.252,30
2019-09-03 18:15,0.117,0.467,30
2019-09-03 18:30,0.293,1.172,30
2019-09-03 18:45,0.422,1.689,30
2019-09-03 19:00,0.436,1.744,30
2019-09-03 19:15,0.425,1.700,30
2019-09-03 19:30,0.326,1.306,30
2019-09-03 19:45,0.359,1.438,30
2019-09-03 20:00,0.426,1.704,30
2019-09-03 20:15,0.289,1.158,30
2019-09-03 20:30,0.178,0.711,30
2019-09-03 20:45,0.178,0.712,30
2019-09-03 21:00,0.208,0.834,30
2019-09-03 21:15,0.062,0.249,30
2019-09-03 21:30,0.008,0.032,30
2019-09-03 21:45,0.013,0.053,30
2019-09-03 22:00,0.005,0.019,30
2019-09-03 22:15,0.009,0.036,30
2019-09-03 22:30,0.019,0.075,30
2019-09-03 22:45,0.123,0.491,30
2019-09-03 23:00,0.231,0.925,30
2019-09-03 23:15,0.077,0.307,30
2019-09-03 23:30,0.051,0.203,30
2019-09-03 23:45,0.056,0.223,30
2019-09-04 00:00,,,21
2019-09-04 00:15,0.045,0.179,30
2019-09-04 00:30,0.022,0.090,30
2019-09-04 00:45,0.000,0.000,30
2019-09-04 01:00,0.000,0.000,30
2019-09-04 01:15,0.000,0.000,30
2019-09-04 01:30,0.000,0.000,30
2019-09-04 01:45,0.000,0.001,30
2019-09-04 02:00,0.002,0.007,30
2019-09-04 02:15,0.000,0.002,30
2019-09-04 02:30,0.000,0.000,30
2019-09-04 02:45,0.000,0.000,30
2019-09-04 03:00,0.000,0.000,30
2019-09-04 03:15,0.000,0.000,30
2019-09-04 03:30,0.000,0.001,30
2019-09-04 03:45,0.001,0.003,30
2019-09-04 04:00,0.000,0.002,30
2019-09-04 04:15,0.001,0.005,30
2019-09-04 04:30,0.001,0.005,30
2019-09-04 04:45,0.000,0.000,30
2019-09-04 05:00,0.000,0.000,30
2019-09-04 05:15,0.000,0.000,30
2019-09-04 05:30,0.000,0.000,30
2019-09-04 05:45,0.000,0.000,30
2019-09-04 06:00,0.000,0.000,30
2019-09-04 06:15,0.000,0.000,30
2019-09-04 06:30,0.001,0.003,30
2019-09-04 06:45,0.002,0.008,30
2019-09-04 07:00,0.005,0.020,30
2019-09-04 07:15,0.014,0.055,30
2019-09-04 07:30,0.001,0.006,30
2019-09-04 07:45,0.015,0.059,30
2019-09-04 08:00,0.020,0.081,30
2019-09-04 08:15,0.002,0.008,30
2019-09-04 08:30,0.000,0.001,30
2019-09-04 08:45,0.000,0.000,30
2019-09-04 09:00,0.000,0.000,30
2019-09-04 09:15,0.000,0.000,30
2019-09-04 09:30,0.000,0.000,30
2019-09-04 09:45,0.000,0.001,30
2019-09-04 10:00,0.023,0.092,30
2019-09-04 10:15,0.045,0.182,30
2019-09-04 10:30,0.170,0.681,30
2019-09-04 10:45,0.143,0.573,30
2019-09-04 11:00,0.034,0.135,30
2019-09-04 11:15,0.006,0.022,30
2019-09-04 11:30,0.003,0.012,30
2019-09-04 11:45,0.051,0.204,30
2019-09-04 12:00,0.092,0.369,30
2019-09-04 12:15,0.212,0.848,30
2019-09-04 12:30,0.084,0.335,30
2019-09-04 12:45,0.013,0.052,30
2019-09-04 13:00,0.022,0.089,30
2019-09-04 13:15,0.073,0.294,30
2019-09-04 13:30,0.144,0.576,30
2019-09-04 13:45,0.048,0.193,30
2019-09-04 14:00,0.025,0.099,30
2019-09-04 14:15,0.123,0.491,30
2019-09-04 14:30,0.188,0.751,30
2019-09-04 14:45,0.153,0.613,30
2019-09-04 15:00,0.048,0.191,30
2019-09-04 15:15,0.005,0.019,30
2019-09-04 15:30,0.002,0.007,30
2019-09-04 15:45,0.001,0.003,30
2019-09-04 16:00,0.055,0.221,30
2019-09-04 16:15,0.281,1.123,30
2019-09-04 16:30,0.031,0.125,30
2019-09-04 16:45,0.000,0.000,30
2019-09-04 17:00,0.000,0.000,30
2019-09-04 17:15,0.001,0.002,30
2019-09-04 17:30,0.009,0.035,30
2019-09-04 17:45,0.016,0.062,30
2019-09-04 18:00,0.002,0.010,30
2019-09-04 18:15,0.000,0.000,30
2019-09-04 18:30,0.000,0.000,30
2019-09-04 18:45,0.000,0.000,30
2019-09-04 19:00,0.000,0.000,30
2019-09-04 19:15,0.000,0.000,30
2019-09-04 19:30,0.000,0.000,30
2019-09-04 19:45,0.000,0.000,30
2019-09-04 20:00,0.000,0.000,30
2019-09-04 20:15,0.000,0.000,30
2019-09-04 20:30,0.000,0.000,30
2019-09-04 20:45,0.000,0.000,30
2019-09-04 21:00,0.000,0.000,30
2019-09-04 21:15,0.000,0.000,30
2019-09-04 21:30,0.000,0.000,30
2019-09-04 21:45,0.000,0.000,30
2019-09-04 22:00,0.000,0.000,30
2019-09-04 22:15,0.000,0.000,30
2019-09-04 22:30,0.000,0.000,30
2019-09-04 22:45,0.000,0.000,30
2019-09-04 23:00,0.000,0.000,30
2019-09-04 23:15,0.000,0.000,30
2019-09-04 23:30,0.000,0.000,30
2019-09-04 23:45,0.000,0.000,30
2019-09-05 00:00,0.000,0.000,30
2019-09-05 00:15,0.000,0.000,30
2019-09-05 00:30,0.000,0.000,30
2019-09-05 00:45,0.000,0.000,30
2019-09-05 01:00,0.000,0.000,30
2019-09-05 01:15,0.000,0.000,30
2019-09-05 01:30,0.000,0.000,30
2019-09-05 01:45,0.000,0.000,30
2019-09-05 02:00,0.000,0.000,30
2019-09-05 02:15,0.000,0.000,30
2019-09-05 02:30,0.000,0.000,30
2019-09-05 02:45,0.000,0.000,30
2019-09-05 03:00,0.000,0.000,30
2019-09-05 03:15,0.000,0.000,30
2019-09-05 03:30,0.000,0.000,30
2019-09-05 03:45,0.000,0.000,30
2019-09-05 04:00,0.000,0.000,30
2019-09-05 04:15,0.000,0.000,30
2019-09-05 04:30,0.000,0.000,30
2019-09-05 04:45,0.000,0.000,30
2019-09-05 05:00,0.000,0.000,30
2019-09-05 05:15,0.000,0.000,30
2019-09-05 05:30,0.000,0.000,30
2019-09-05 05:45,0.000,0.000,30
2019-09-05 06:00,0.000,0.000,30
2019-09-05 06:15,0.000,0.000,30
2019-09-05 06:30,0.000,0.000,30
2019-09-05 06:45,0.000,0.000,30
2019-09-05 07:00,0.000,0.000,30
2019-09-05 07:15,0.000,0.000,30
2019-09-05 07:30,0.000,0.000,30
2019-09-05 07:45,0.000,0.000,30
2019-09-05 08:00,0.000,0.000,30
2019-09-05 08:15,0.000,0.001,30
2019-09-05 08:30,0.000,0.001,30
2019-09-05 08:45,0.002,0.008,30
2019-09-05 09:00,0.002,0.008,30
2019-09-05 09:15,0.000,0.000,30
2019-09-05 09:30,0.000,0.000,30
2019-09-05 09:45,0.006,0.026,30
2019-09-05 10:00,0.006,0.024,30
2019-09-05 10:15,0.002,0.007,30
2019-09-05 10:30,0.013,0.053,30
2019-09-05 10:45,0.058,0.232,30
2019-09-05 11:00,0.064,0.256,30
2019-09-05 11:15,0.023,0.094,30
2019-09-05 11:30,0.003,0.011,30
2019-09-05 11:45,0.007,0.029,30
2019-09-05 12:00,0.003,0.011,30
2019-09-05 12:15,0.000,0.001,30
2019-09-05 12:30,0.000,0.000,30
2019-09-05 12:45,0.000,0.000,30
2019-09-05 13:00,0.001,0.005,30
2019-09-05 13:15,0.004,0.018,30
2019-09-05 13:30,0.001,0.004,30
2019-09-05 13:45,0.000,0.000,30
2019-09-05 14:00,0.000,0.000,30
2019-09-05 14:15,0.000,0.000,30
2019-09-05 14:30,0.000,0.001,30
2019-09-05 14:45,0.000,0.000,30
2019-09-05 15:00,0.000,0.000,30
2019-09-05 15:15,0.000,0.000,30
2019-09-05 15:30,0.000,0.000,30
2019-09-05 15:45,0.000,0.000,30
2019-09-05 16:00,0.000,0.000,30
2019-09-05 16:15,0.000,0.000,30
2019-09-05 16:30,0.000,0.000,30
2019-09-05 16:45,0.000,0.000,30
2019-09-05 17:00,0.000,0.000,30
2019-09-05 17:15,0.000,0.000,30
2019-09-05 17:30,0.000,0.000,30
2019-09-05 17:45,0.000,0.000,30
2019-09-05 18:00,0.000,0.000,30
2019-09-05 18:15,0.000,0.000,30
2019-09-05 18:30,0.000,0.000,30
2019-09-05 18:45,0.000,0.000,30
2019-09-05 19:00,0.000,0.000,30
2019-09-05 19:15,0.000,0.000,30
2019-09-05 19:30,0.000,0.000,30
2019-09-05 19:45,0.000,0.000,30
2019-09-05 20:00,0.000,0.000,30
2019-09-05 20:15,0.000,0.000,30
2019-09-05 20:30,0.000,0.000,30
2019-09-05 20:45,0.000,0.000,30
2019-09-05 21:00,0.000,0.000,30
2019-09-05 21:15,0.000,0.001,30
2019-09-05 21:30,0.000,0.001,30
2019-09-05 21:45,0.000,0.000,30
2019-09-05 22:00,0.000,0.000,30
2019-09-05 22:15,0.000,0.000,30
2019-09-05 22:30,0.000,0.000,30
2019-09-05 22:45,0.000,0.000,30
2019-09-05 23:00,0.000,0.000,30
2019-09-05 23:15,0.000,0.002,30
2019-09-05 23:30,0.001,0.004,30
2019-09-05 23:45,0.002,0.008,30
2019-09-06 00:00,,,21
2019-09-06 00:15,0.003,0.010,30
2019-09-06 00:30,0.010,0.041,30
2019-09-06 00:45,0.012,0.048,30
2019-09-06 01:00,0.015,0.061,30
2019-09-06 01:15,0.066,0.265,30
2019-09-06 01:30,0.063,0.251,30
2019-09-06 01:45,0.161,0.644,30
2019-09-06 02:00,0.207,0.830,30
2019-09-06 02:15,0.287,1.146,30
2019-09-06 02:30,0.170,0.678,30
2019-09-06 02:45,0.114,0.456,30
2019-09-06 03:00,0.087,0.349,30
2019-09-06 03:15,0.072,0.287,30
2019-09-06 03:30,0.093,0.373,30
2019-09-06 03:45,0.020,0.078,30
2019-09-06 04:00,0.016,0.063,30
2019-09-06 04:15,0.002,0.007,30
2019-09-06 04:30,0.001,0.005,30
2019-09-06 04:45,0.005,0.021,30
2019-09-06 05:00,0.012,0.046,30
2019-09-06 05:15,0.001,0.006,30
2019-09-06 05:30,0.000,0.000,30
2019-09-06 05:45,0.000,0.000,30
2019-09-06 06:00,0.000,0.000,30
2019-09-06 06:15,0.000,0.001,30
2019-09-06 06:30,0.000,0.001,30
2019-09-06 06:45,0.003,0.012,30
2019-09-06 07:00,0.016,0.066,30
2019-09-06 07:15,0.042,0.167,30
2019-09-06 07:30,0.111,0.445,30
2019-09-06 07:45,0.041,0.166,30
2019-09-06 08:00,0.004,0.015,30
2019-09-06 08:15,0.000,0.000,30
2019-09-06 08:30,0.000,0.000,30
2019-09-06 08:45,0.000,0.000,30
2019-09-06 09:00,0.000,0.000,30
2019-09-06 09:15,0.000,0.000,30
2019-09-06 09:30,0.000,0.001,30
2019-09-06 09:45,0.001,0.004,30
2019-09-06 10:00,0.009,0.036,30
2019-09-06 10:15,0.031,0.123,30
2019-09-06 10:30,0.030,0.120,30
2019-09-06 10:45,0.028,0.111,30
2019-09-06 11:00,0.015,0.059,30
2019-09-06 11:15,0.024,0.097,30
2019-09-06 11:30,0.045,0.180,30
2019-09-06 11:45,0.007,0.029,30
2019-09-06 12:00,0.001,0.003,30
2019-09-06 12:15,0.083,0.331,30
2019-09-06 12:30,0.057,0.227,30
2019-09-06 12:45,0.001,0.006,30
2019-09-06 13:00,0.000,0.000,30
2019-09-06 13:15,0.000,0.000,30
2019-09-06 13:30,0.003,0.012,30
2019-09-06 13:45,0.035,0.138,30
2019-09-06 14:00,0.020,0.079,30
2019-09-06 14:15,0.001,0.005,30
2019-09-06 14:30,0.007,0.026,30
2019-09-06 14:45,0.004,0.014,30
2019-09-06 15:00,0.001,0.002,30
2019-09-06 15:15,0.000,0.000,30
2019-09-06 15:30,0.002,0.010,30
2019-09-06 15:45,0.000,0.001,30
2019-09-06 16:00,0.010,0.041,30
2019-09-06 16:15,0.018,0.072,30
2019-09-06 16:30,0.004,0.014,30
2019-09-06 16:45,0.001,0.002,30
2019-09-06 17:00,0.000,0.000,30
2019-09-06 17:15,0.000,0.000,30
2019-09-06 17:30,0.000,0.000,30
2019-09-06 17:45,0.000,0.000,30
2019-09-06 18:00,0.000,0.000,30
2019-09-06 18:15,0.005,0.018,30
2019-09-06 18:30,0.015,0.061,30
2019-09-06 18:45,0.001,0.005,30
2019-09-06 19:00,0.000,0.000,30
2019-09-06 19:15,0.000,0.000,30
2019-09-06 19:30,0.000,0.000,30
2019-09-06 19:45,0.000,0.000,30
2019-09-06 20:00,0.000,0.000,30
2019-09-06 20:15,0.000,0.000,30
2019-09-06 20:30,0.000,0.000,30
2019-09-06 20:45,0.002,0.008,30
2019-09-06 21:00,0.004,0.015,30
2019-09-06 21:15,0.001,0.005,30
2019-09-06 21:30,0.000,0.002,30
2019-09-06 21:45,0.000,0.000,30
2019-09-06 22:00,0.000,0.000,30
2019-09-06 22:15,0.000,0.000,30
2019-09-06 22:30,0.000,0.000,30
2019-09-06 22:45,0.000,0.000,30
2019-09-06 23:00,0.000,0.000,30
2019-09-06 23:15,0.000,0.000,30
2019-09-06 23:30,0.000,0.000,30
2019-09-06 23:45,0.000,0.000,30
2019-09-07 00:00,0.000,0.000,30
2019-09-07 00:15,0.000,0.000,30
2019-09-07 00:30,0.000,0.000,30
2019-09-07 00:45,0.000,0.000,30
2019-09-07 01:00,0.000,0.000,30
2019-09-07 01:15,0.000,0.000,30
2019-09-07 01:30,0.000,0.000,30
2019-09-07 01:45,0.000,0.000,30
2019-09-07 02:00,0.000,0.000,30
2019-09-07 02:15,0.000,0.000,30
2019-09-07 02:30,0.000,0.000,30
2019-09-07 02:45,0.000,0.000,30
2019-09-07 03:00,0.000,0.000,30
2019-09-07 03:15,0.000,0.000,30
2019-09-07 03:30,0.000,0.000,30
2019-09-07 03:45,0.000,0.000,30
2019-09-07 04:00,0.000,0.000,30
2019-09-07 04:15,0.000,0.000,30
2019-09-07 04:30,0.000,0.000,30
2019-09-07 04:45,0.000,0.000,30
2019-09-07 05:00,0.000,0.000,30
2019-09-07 05:15,0.000,0.000,30
2019-09-07 05:30,0.000,0.000,30
2019-09-07 05:45,0.000,0.000,30
2019-09-07 06:00,0.000,0.000,30
2019-09-07 06:15,0.000,0.000,30
2019-09-07 06:30,0.000,0.000,30
2019-09-07 06:45,0.000,0.000,30
2019-09-07 07:00,0.000,0.000,30
2019-09-07 07:15,0.000,0.000,30
2019-09-07 07:30,0.000,0.000,30
2019-09-07 07:45,0.000,0.000,30
2019-09-07 08:00,0.000,0.000,30
2019-09-07 08:15,0.000,0.000,30
2019-09-07 08:30,0.000,0.000,30
2019-09-07 08:45,0.000,0.000,30
2019-09-07 09:00,0.000,0.000,30
2019-09-07 09:15,0.000,0.000,30
2019-09-07 09:30,0.000,0.000,30
2019-09-07 09:45,0.000,0.000,30
2019-09-07 10:00,0.000,0.000,30
2019-09-07 10:15,0.000,0.000,30
2019-09-07 10:30,0.000,0.000,30
2019-09-07 10:45,0.000,0.000,30
2019-09-07 11:00,0.000,0.000,30
2019-09-07 11:15,0.000,0.000,30
2019-09-07 11:30,0.000,0.000,30
2019-09-07 11:45,0.000,0.000,30
2019-09-07 12:00,0.000,0.000,30
2019-09-07 12:15,0.000,0.000,30
2019-09-07 12:30,0.000,0.000,30
2019-09-07 12:45,0.000,0.000,30
2019-09-07 13:00,0.000,0.000,30
2019-09-07 13:15,0.000,0.000,30
2019-09-07 13:30,0.000,0.000,30
2019-09-07 13:45,0.000,0.000,30
2019-09-07 14:00,0.000,0.000,30
2019-09-07 14:15,0.000,0.000,30
2019-09-07 14:30,0.000,0.000,30
2019-09-07 14:45,0.000,0.000,30
2019-09-07 15:00,0.000,0.000,30
2019-09-07 15:15,0.000,0.000,30
2019-09-07 15:30,0.000,0.000,30
2019-09-07 15:45,0.000,0.000,30
2019-09-07 16:00,0.000,0.000,30
2019-09-07 16:15,0.000,0.000,30
2019-09-07 16:30,0.000,0.000,30
2019-09-07 16:45,0.000,0.000,30
2019-09-07 17:00,0.000,0.000,30
2019-09-07 17:15,0.000,0.000,30
2019-09-07 17:30,0.000,0.000,30
2019-09-07 17:45,0.000,0.000,30
2019-09-07 18:00,0.000,0.000,30
2019-09-07 18:15,0.000,0.000,30
2019-09-07 18:30,0.000,0.000,30
2019-09-07 18:45,0.000,0.000,30
2019-09-07 19:00,0.000,0.000,30
2019-09-07 19:15,0.000,0.000,30
2019-09-07 19:30,0.000,0.000,30
2019-09-07 19:45,0.000,0.000,30
2019-09-07 20:00,0.000,0.000,30
2019-09-07 20:15,0.000,0.000,30
2019-09-07 20:30,0.000,0.000,30
2019-09-07 20:45,0.000,0.000,30
2019-09-07 21:00,0.000,0.000,30
2019-09-07 21:15,0.000,0.000,30
2019-09-07 21:30,0.000,0.000,30
2019-09-07 21:45,0.000,0.000,30
2019-09-07 22:00,0.000,0.000,30
2019-09-07 22:15,0.000,0.000,30
2019-09-07 22:30,0.000,0.000,30
2019-09-07 22:45,0.000,0.000,30
2019-09-07 23:00,0.000,0.000,30
2019-09-07 23:15,0.000,0.000,30
2019-09-07 23:30,0.000,0.000,30
2019-09-07 23:45,0.000,0.000,30
2019-09-08 00:00,0.000,0.000,30
2019-09-08 00:15,0.000,0.000,30
2019-09-08 00:30,0.000,0.000,30
2019-09-08 00:45,0.000,0.000,30
2019-09-08 01:00,0.000,0.000,30
2019-09-08 01:15,0.000,0.000,30
2019-09-08 01:30,0.000,0.000,30
2019-09-08 01:45,0.000,0.000,30
2019-09-08 02:00,0.000,0.000,30
2019-09-08 02:15,0.000,0.000,30
2019-09-08 02:30,0.000,0.000,30
2019-09-08 02:45,0.000,0.000,30
2019-09-08 03:00,0.000,0.000,30
2019-09-08 03:15,0.000,0.000,30
2019-09-08 03:30,0.000,0.000,30
2019-09-08 03:45,0.000,0.000,30
2019-09-08 04:00,0.000,0.000,30
2019-09-08 04:15,0.000,0.000,30
2019-09-08 04:30,0.000,0.000,30
2019-09-08 04:45,0.000,0.000,30
2019-09-08 05:00,0.000,0.000,30
2019-09-08 05:15,0.000,0.000,30
2019-09-08 05:30,0.000,0.000,30
2019-09-08 05:45,0.000,0.000,30
2019-09-08 06:00,0.000,0.000,30
2019-09-08 06:15,0.000,0.000,30
2019-09-08 06:30,0.000,0.000,30
2019-09-08 06:45,0.000,0.000,30
2019-09-08 07:00,0.000,0.000,30
2019-09-08 07:15,0.000,0.000,30
2019-09-08 07:30,0.000,0.000,30
2019-09-08 07:45,0.000,0.000,30
2019-09-08 08:00,0.000,0.000,30
2019-09-08 08:15,0.000,0.000,30
2019-09-08 08:30,0.000,0.000,30
2019-09-08 08:45,0.000,0.000,30
2019-09-08 09:00,0.000,0.000,30
2019-09-08 09:15,0.000,0.000,30
2019-09-08 09:30,0.000,0.000,30
2019-09-08 09:45,0.000,0.000,30
2019-09-08 10:00,0.000,0.000,30
2019-09-08 10:15,0.000,0.000,30
2019-09-08 10:30,0.000,0.000,30
2019-09-08 10:45,0.000,0.000,30
2019-09-08 11:00,0.000,0.000,30
2019-09-08 11:15,0.000,0.000,30
2019-09-08 11:30,0.000,0.000,30
2019-09-08 11:45,0.000,0.000,30
2019-09-08 12:00,0.000,0.000,30
2019-09-08 12:15,0.000,0.000,30
2019-09-08 12:30,0.000,0.000,30
2019-09-08 12:45,0.000,0.000,30
2019-09-08 13:00,0.000,0.000,30
2019-09-08 13:15,0.000,0.000,30
2019-09-08 13:30,0.000,0.000,30
2019-09-08 13:45,0.000,0.000,30
2019-09-08 14:00,0.000,0.000,30
2019-09-08 14:15,0.000,0.000,30
2019-09-08 14:30,0.000,0.000,30
2019-09-08 14:45,0.000,0.000,30
2019-09-08 15:00,0.000,0.000,30
2019-09-08 15:15,0.000,0.000,30
2019-09-08 15:30,0.000,0.000,30
2019-09-08 15:45,0.000,0.000,30
2019-09-08 16:00,0.000,0.000,30
2019-09-08 16:15,0.000,0.000,30
2019-09-08 16:30,0.000,0.000,30
2019-09-08 16:45,0.000,0.000,30
2019-09-08 17:00,0.000,0.000,30
2019-09-08 17:15,0.000,0.000,30
2019-09-08 17:30,0.000,0.000,30
2019-09-08 17:45,0.001,0.002,30
2019-09-08 18:00,0.001,0.005,30
2019-09-08 18:15,0.001,0.002,30
2019-09-08 18:30,0.000,0.000,30
2019-09-08 18:45,0.000,0.001,30